GW6161 Weather Reports


time (UTC)temp
C
wind
direction
speed
KPH
gust
KPH
rain 1hr
cm
rain 24hr
cm
rain mn
cm
humidity
%
barometer
mb
20260510204431 30 279 3.2 4.8 0.00 0.00 0.00 38 999.9
20260510203426 30 296 3.2 6.4 0.00 0.00 0.00 37 1000.1
20260510202421 30 290 3.2 4.8 0.00 0.00 0.00 38 1000.2
20260510201421 30 267 3.2 6.4 0.00 0.00 0.00 32 1000.5
20260510200418 30 284 1.6 8.0 0.00 0.00 0.00 43 1000.4
20260510195415 30 267 3.2 4.8 0.00 0.00 0.00 38 1000.6
20260510194412 29 271 3.2 3.2 0.00 0.00 0.00 36 1000.6
20260510193409 29 280 3.2 4.8 0.00 0.00 0.00 39 1000.6
20260510192406 29 302 0.0 3.2 0.00 0.00 0.00 43 1000.7
20260510191404 28 263 3.2 4.8 0.00 0.00 0.00 41 1000.7
20260510190359 28 294 3.2 3.2 0.00 0.00 0.00 43 1000.6
20260510185358 28 274 3.2 3.2 0.00 0.00 0.00 41 1001.0
20260510184358 28 256 3.2 4.8 0.00 0.00 0.00 38 1001.2
20260510183354 27 0 0.0 4.8 0.00 0.00 0.00 43 1001.0
20260510182352 28 313 3.2 4.8 0.00 0.00 0.00 42 1001.2
20260510181351 28 259 3.2 4.8 0.00 0.00 0.00 39 1001.2
20260510180350 27 311 1.6 3.2 0.00 0.00 0.00 45 1001.2
20260510175348 26 261 3.2 6.4 0.00 0.00 0.00 49 1001.4
20260510174348 26 302 1.6 3.2 0.00 0.00 0.00 51 1001.6
20260510173346 26 269 6.4 6.4 0.00 0.00 0.00 48 1001.6
20260510172344 25 262 4.8 9.7 0.00 0.00 0.00 56 1001.6
20260510171344 26 263 3.2 4.8 0.00 0.00 0.00 57 1001.6
20260510170343 25 241 1.6 6.4 0.00 0.00 0.00 56 1001.6
20260510165341 25 266 4.8 6.4 0.00 0.00 0.00 59 1001.7
20260510164335 25 313 3.2 4.8 0.00 0.00 0.00 65 1002.0
20260510163331 25 243 0.0 3.2 0.00 0.00 0.00 63 1002.0
20260510162329 24 321 1.6 3.2 0.00 0.00 0.00 73 1002.1
20260510161326 23 311 1.6 3.2 0.00 0.00 0.00 76 1002.1
20260510160326 22 271 1.6 3.2 0.00 0.00 0.00 76 1001.8
20260510155323 24 267 3.2 4.8 0.00 0.00 0.00 73 1001.9
20260510154321 22 292 3.2 3.2 0.00 0.00 0.00 77 1001.9
20260510153318 21 37 0.0 1.6 0.00 0.00 0.00 84 1001.9
20260510152317 21 314 0.0 3.2 0.00 0.00 0.00 85 1001.8
20260510151318 21 261 6.4 6.4 0.00 0.00 0.00 85 1001.8
20260510150315 20 273 4.8 4.8 0.00 0.00 0.00 89 1001.6
20260510145314 19 276 3.2 4.8 0.00 0.00 0.00 91 1001.8
20260510144313 19 269 0.0 6.4 0.00 0.00 0.00 92 1001.9
20260510143309 19 264 3.2 6.4 0.00 0.00 0.00 92 1001.8
20260510142309 18 345 0.0 3.2 0.00 0.00 0.00 94 1001.9
20260510141303 18 310 0.0 3.2 0.00 0.00 0.00 95 1001.8
20260510140301 18 273 3.2 4.8 0.00 0.00 0.00 97 1001.9
20260510135257 18 9 0.0 1.6 0.00 0.00 0.00 99 1001.8
20260510134252 17 269 1.6 4.8 0.00 0.00 0.00 99 1001.7
20260510133249 17 271 3.2 4.8 0.00 0.00 0.00 99 1001.5
20260510132249 17 267 3.2 3.2 0.00 0.00 0.00 99 1001.3
20260510131244 17 293 1.6 3.2 0.00 0.00 0.00 99 1001.4
20260510130243 17 262 3.2 4.8 0.00 0.00 0.00 99 1001.4
20260510125241 17 335 0.0 1.6 0.00 0.00 0.00 99 1001.2
20260510124236 17 271 3.2 3.2 0.00 0.00 0.00 99 1001.1
20260510123233 17 269 0.0 3.2 0.00 0.00 0.00 99 1000.8
20260510122232 16 303 0.0 0.0 0.00 0.00 0.00 99 1000.7
20260510121232 16 18 0.0 3.2 0.00 0.00 0.00 99 1000.9
20260510120231 16 50 0.0 3.2 0.00 0.00 0.00 99 1000.7
20260510115231 16 281 3.2 4.8 0.00 0.00 0.00 99 1000.6
20260510114230 16 279 0.0 1.6 0.00 0.00 0.00 99 1000.3
20260510113228 16 1 0.0 1.6 0.00 0.00 0.00 99 1000.1
20260510112227 16 103 0.0 1.6 0.00 0.00 0.00 99 1000.0
20260510111226 16 77 0.0 1.6 0.00 0.00 0.00 99 1000.0
20260510110223 16 349 1.6 3.2 0.00 0.00 0.00 99 999.8
20260510105223 16 76 0.0 3.2 0.00 0.00 0.00 99 999.6
20260510104223 16 278 0.0 3.2 0.00 0.00 0.00 99 999.5
20260510103223 16 348 1.6 3.2 0.00 0.00 0.00 99 999.2
20260510102218 16 318 0.0 1.6 0.00 0.00 0.00 99 998.8
20260510101214 16 304 0.0 0.0 0.00 0.00 0.00 99 999.0
20260510100214 16 44 0.0 3.2 0.00 0.00 0.00 99 999.2
20260510095210 16 310 0.0 1.6 0.00 0.00 0.00 99 998.9
20260510094205 16 310 0.0 3.2 0.00 0.00 0.00 99 998.9
20260510093204 16 44 0.0 0.0 0.00 0.00 0.00 99 998.7
20260510092202 16 37 0.0 0.0 0.00 0.00 0.00 99 998.8
20260510091200 16 296 0.0 0.0 0.00 0.00 0.00 99 999.0
20260510090159 16 269 0.0 1.6 0.00 0.00 0.00 99 998.9
20260510085155 16 25 0.0 1.6 0.00 0.00 0.00 98 998.6
20260510084154 16 309 0.0 0.0 0.00 0.00 0.00 98 998.2
20260510083154 15 29 0.0 1.6 0.00 0.00 0.00 98 998.3
20260510082152 15 37 0.0 1.6 0.00 0.00 0.00 98 998.3
20260510081149 15 304 0.0 3.2 0.00 0.00 0.00 98 998.3
20260510080145 15 66 0.0 0.0 0.00 0.00 0.00 97 997.9
20260510075145 15 66 0.0 1.6 0.00 0.00 0.00 96 997.9
20260510074144 15 326 0.0 0.0 0.00 0.00 0.00 97 998.0
20260510073143 15 26 0.0 1.6 0.00 0.00 0.00 97 997.8
20260510072141 16 66 0.0 1.6 0.00 0.00 0.00 97 997.8
20260510071141 16 32 0.0 0.0 0.00 0.00 0.00 97 997.9
20260510070136 16 66 0.0 1.6 0.00 0.00 0.00 97 997.6
20260510065133 16 34 0.0 3.2 0.00 0.00 0.00 97 997.6
20260510064132 16 47 1.6 1.6 0.00 0.00 0.00 97 997.8
20260510063132 16 58 0.0 1.6 0.00 0.00 0.00 96 997.9
20260510062130 16 37 0.0 0.0 0.00 0.00 0.00 96 998.0
20260510061129 16 39 0.0 1.6 0.00 0.00 0.00 95 997.9
20260510060127 16 55 0.0 0.0 0.00 0.00 0.00 95 997.8
20260510055122 16 31 0.0 1.6 0.00 0.00 0.00 95 997.8
20260510054118 16 50 0.0 1.6 0.00 0.00 0.00 95 998.0
20260510053115 16 37 0.0 0.0 0.00 0.00 0.00 94 997.9
20260510052113 17 44 0.0 0.0 0.00 0.00 0.00 94 998.0
20260510051112 17 32 0.0 0.0 0.00 0.00 0.00 94 998.1
20260510050112 17 50 0.0 0.0 0.00 0.00 0.00 93 998.1
20260510045110 17 38 0.0 1.6 0.00 0.00 0.00 93 998.0
20260510044110 17 56 1.6 3.2 0.00 0.00 0.00 93 998.0
20260510043108 17 40 0.0 1.6 0.00 0.00 0.00 93 998.1
20260510042108 17 39 0.0 1.6 0.00 0.00 0.00 93 998.1
20260510041108 17 47 1.6 3.2 0.00 0.00 0.00 93 998.3
20260510040107 17 69 0.0 3.2 0.00 0.00 0.00 93 998.2
20260510035103 17 37 0.0 3.2 0.00 0.00 0.00 93 998.2
20260510034058 17 49 0.0 3.2 0.00 0.00 0.00 93 998.2
20260510033058 17 54 0.0 3.2 0.00 0.00 0.00 94 998.3
20260510032055 17 50 0.0 3.2 0.00 0.00 0.00 94 998.2
20260510031052 17 89 0.0 1.6 0.00 0.00 0.00 94 998.1
20260510030051 17 61 1.6 3.2 0.00 0.00 0.00 93 998.0
20260510025051 17 55 0.0 3.2 0.00 0.00 0.00 93 998.0
20260510024050 17 54 1.6 1.6 0.00 0.00 0.00 92 998.0
20260510023050 18 44 0.0 1.6 0.00 0.00 0.00 91 997.6
20260510022049 18 34 0.0 1.6 0.00 0.00 0.00 91 997.6
20260510021044 18 32 0.0 1.6 0.00 0.00 0.00 90 997.5
20260510020040 18 22 0.0 1.6 0.00 0.00 0.00 89 997.2
20260510015037 18 25 0.0 0.0 0.00 0.00 0.00 89 997.0
20260510014037 18 49 0.0 0.0 0.00 0.00 0.00 88 996.9
20260510013033 19 50 0.0 0.0 0.00 0.00 0.00 87 996.5
20260510012030 19 37 0.0 1.6 0.00 0.00 0.00 86 996.5
20260510011026 19 31 0.0 1.6 0.00 0.00 0.00 85 996.2
20260510010026 20 44 0.0 1.6 0.00 0.00 0.00 85 996.3
20260510005025 20 44 0.0 0.0 0.00 0.00 0.00 84 996.0
20260510004020 20 0 0.0 0.0 0.00 0.00 0.00 84 996.0
20260510003018 20 345 0.0 1.6 0.00 0.00 0.00 83 995.8
20260510002017 20 326 0.0 0.0 0.00 0.00 0.00 82 995.8
20260510001012 20 6 0.0 1.6 0.00 0.00 0.00 81 995.6
20260510000009 20 37 0.0 0.0 0.00 0.00 0.00 82 995.6
20260509235009 20 38 0.0 0.0 0.00 0.00 0.00 82 995.6
20260509234003 21 22 0.0 1.6 0.00 0.00 0.00 82 995.5
20260509233002 21 44 0.0 0.0 0.00 0.00 0.00 81 995.3
20260509232002 21 34 0.0 0.0 0.00 0.00 0.00 82 995.3
20260509230956 21 346 0.0 1.6 0.00 0.00 0.00 81 995.6
20260509225955 21 15 0.0 0.0 0.00 0.00 0.00 80 995.5
20260509224953 21 32 0.0 1.6 0.00 0.00 0.00 80 995.5
20260509223952 21 46 0.0 1.6 0.00 0.00 0.00 80 995.3
20260509222952 22 315 0.0 0.0 0.00 0.00 0.00 79 995.1
20260509221949 22 37 0.0 1.6 0.00 0.00 0.00 78 995.4
20260509220947 22 297 0.0 0.0 0.00 0.00 0.00 78 994.7
20260509215945 23 41 0.0 0.0 0.00 0.00 0.00 76 994.8
20260509214944 23 308 1.6 3.2 0.00 0.00 0.00 69 994.9
20260509213943 24 75 0.0 1.6 0.00 0.00 0.00 68 994.9
20260509212942 24 268 3.2 3.2 0.00 0.00 0.00 66 994.8
20260509211941 24 269 0.0 6.4 0.00 0.00 0.00 64 994.8
20260509210939 24 265 3.2 6.4 0.00 0.00 0.00 62 994.9
20260509205938 24 312 0.0 0.0 0.00 0.00 0.00 67 994.9
20260509204934 23 287 1.6 3.2 0.00 0.00 0.00 65 995.0